Location: Observatorio Las Palmas
(29.0667°N, 110.9333°W)
Time: 21:23:55
(UTC-07:00)

Skynet4D Del rocket - Visible Passes

Search period start: 01 October 2014 00:00
Search period end: 11 October 2014 00:00
Orbit: 763 x 1291 km, 26.9° (Epoch: 29 September)

Date Brightness Start Highest point End Pass type
(mag) Time Alt. Az. Time Alt. Az. Time Alt. Az.
01 Oct 6.3 02:34:49 21° E 02:34:49 21° E 02:37:18 10° E visible
01 Oct 4.5 04:20:27 49° WSW 04:22:48 71° S 04:30:28 10° E visible
02 Oct 5.3 03:13:40 44° ESE 03:13:40 44° ESE 03:19:05 10° E visible
02 Oct 4.5 04:59:18 26° W 05:04:26 77° S 05:12:00 10° E visible
03 Oct 6.9 02:06:53 12° E 02:06:53 12° E 02:07:28 10° E visible
03 Oct 4.4 03:52:31 74° S 03:52:45 74° S 04:00:42 10° E visible
03 Oct 4.6 05:38:09 11° W 05:46:03 72° S 05:53:28 10° ESE visible
04 Oct 6.0 02:45:43 28° E 02:45:43 28° E 02:49:13 10° E visible
04 Oct 4.5 04:31:21 43° WSW 04:34:25 77° S 04:42:16 10° E visible
05 Oct 4.9 03:24:35 57° ESE 03:24:35 57° ESE 03:30:51 10° E visible
05 Oct 4.6 05:10:13 22° W 05:16:02 69° S 05:23:43 10° ESE visible
06 Oct 6.7 02:17:50 16° E 02:17:50 16° E 02:19:16 10° E visible
06 Oct 4.4 04:03:28 70° SW 04:04:21 76° S 04:12:26 10° E visible
06 Oct 4.9 05:49:31 10° W 05:57:31 53° SSW 06:04:53 10° SE visible
07 Oct 5.8 02:56:44 34° E 02:56:44 34° E 03:00:55 10° E visible
07 Oct 4.6 04:42:22 37° W 04:45:57 65° SSW 04:53:52 10° ESE visible
08 Oct 4.8 03:35:41 62° SE 03:35:41 62° SE 03:42:31 10° ESE visible
08 Oct 5.0 05:21:19 18° W 05:27:25 48° SSW 05:34:57 10° SE visible
09 Oct 6.5 02:29:01 19° E 02:29:01 19° E 02:30:55 10° E visible
09 Oct 4.6 04:14:39 56° SW 04:15:51 61° SSW 04:23:54 10° ESE visible
10 Oct 5.7 03:08:02 35° ESE 03:08:02 35° ESE 03:12:29 10° ESE visible
10 Oct 5.1 04:53:41 29° WSW 04:57:17 43° SSW 05:04:52 10° SE visible
